Regional Weather Roundup
Issued by NWS

Home | Current Version | Previous Version | Text Only | Print | Product List | Glossary Off
Versions: 1 2 3 4 5 6 7 8 9 10 11 12 13 14 15 16 17 18 19 20 21 22 23 24 25 26 27 28 29 30 31 32 33 34 35 36 37 38 39 40 41 42 43 44 45 46 47 48 49 50

844
ASUS43 KMKX 051300
RWRWI

WISCONSIN REGIONAL WEATHER ROUNDUP
NATIONAL WEATHER SERVICE MILWAUKEE/SULLIVAN WI
700 AM CST MON DEC 05 2016

NOTE: "FAIR" INDICATES FEW OR NO CLOUDS BELOW 12,000 FEET WITH NO
SIGNIFICANT WEATHER AND/OR OBSTRUCTIONS TO VISIBILITY.

WIZ001-002-006>008-014>016-023>028-051400-
NORTHWEST WISCONSIN

CITY           SKY/WX    TMP DP  RH WIND       PRES   REMARKS
SUPERIOR ARPT  CLOUDY    33  29  86 SW5       29.79R WCI  28
ASHLAND        CLOUDY    33  29  85 SW5       29.79R WCI  29
HAYWARD        MOCLDY    29  26  89 S3        29.80R
SIREN          CLEAR     27  26  98 CALM      29.79S FOG
CUMBERLAND     FOG       23  23 100 CALM      29.80S VSB<1/4
RICE LAKE      FOG       24  23  97 CALM      29.83S VSB 1/4
CHETEK         CLEAR     25  24  98 E8        29.82S FOG     WCI  16
LADYSMITH      FOG       28  27  97 S5        29.84R VSB 1/4 WCI  23
EAU CLAIRE     NOT AVBL
MENOMONIE      MOCLDY    23  22  97 E5        29.82F FOG     WCI  17
NEW RICHMOND   PTCLDY    24  23  99 SE3       29.79F FOG
OSCEOLA        FOG       23  23 100 E3        29.82F VSB 1/2
$$

WIZ003>005-009-010-017-018-051400-
NORTH CENTRAL WISCONSIN

CITY           SKY/WX    TMP DP  RH WIND       PRES   REMARKS
MANITOWISH WTR CLOUDY    31  31 100 SW6       29.77R WCI  25
ARBOR VITAE    CLOUDY    32  30  91 W9        29.78R WCI  24
WOODRUFF       CLOUDY    32  30  91 W9        29.78R WCI  24
RHINELANDER    CLOUDY    32  29  88 W15       29.80R WCI  22
EAGLE RIVER    CLOUDY    32  30  93 W10       29.77R WCI  23
LAND O LAKES   CLOUDY    32  30  91 W6        29.77R WCI  26
PHILLIPS       CLOUDY    31  29  94 SW6       29.80R WCI  25
TOMAHAWK       CLOUDY    32  28  84 W5        29.82R WCI  27
MEDFORD        FOG       29  28  99 SW3       29.82R VSB 1/4
MERRILL        CLOUDY    32  30  94 W7        29.84R WCI  25
$$

WIZ029-030-035-036-043>047-051400-
CENTRAL WISCONSIN

CITY           SKY/WX    TMP DP  RH WIND       PRES   REMARKS
WAUSAU         CLOUDY    32  29  88 SW5       29.84R WCI  27
MOSINEE        CLOUDY    32  32 100 S7        29.87R WCI  26
MARSHFIELD     CLOUDY    32  30  92 SW8       29.84R WCI  25
STEVENS POINT  CLOUDY    32  32 100 SW7       29.88R WCI  25
WAUPACA        MOCLDY    32  31  94 CALM      29.90R
WAUTOMA        CLOUDY    33  31  92 SW9       29.90S WCI  25
WISC RAPIDS    CLOUDY    33  32  96 SW9       29.89S WCI  25
CAMP DOUGLAS   NOT AVBL
$$

WIZ011>013-019>022-031-037>040-048>050-051400-
NORTHEAST WISCONSIN

CITY           SKY/WX    TMP DP  RH WIND       PRES   REMARKS
ANTIGO         CLOUDY    31  29  91 W12       29.82R WCI  22
SHAWANO        PTCLDY    34  32  92 SW5       29.88R WCI  30
OCONTO         CLOUDY    32  31  94 SW6       29.86R WCI  27
STURGEON BAY   CLEAR     34  31  88 SW10      29.87R WCI  26
GREEN BAY      MOCLDY    34  32  92 SW9       29.89R WCI  27
MANITOWOC      NOT AVBL
APPLETON       MOCLDY    30  30 100 SW12      29.88R WCI  21
CLINTONVILLE   CLOUDY    34  32  93 SW8       29.88R WCI  27
OSHKOSH        CLOUDY    33  29  85 SW5       29.91R WCI  29
$$

WIZ032>034-041-042-053>061-051400-
SOUTHWEST WISCONSIN

CITY           SKY/WX    TMP DP  RH WIND       PRES   REMARKS
LA CROSSE      CLOUDY    35  32  88 S8        29.87S WCI  29
SPARTA         MOCLDY    32  31  98 CALM      29.88F
VIROQUA        CLOUDY    32  32 100 S8        29.86F VSB 1/4 WCI  25
BOSCOBEL       CLOUDY    35  32  88 S5        29.92S FOG     WCI  31
PRAIRIE DU CHI CLOUDY    33  31  94 CALM      29.92R FOG
PLATTEVILLE    CLOUDY    32  32 100 S14       29.94R VSB 3/4 WCI  22
$$

WIZ056-057-062-063-064-067-068-051400-
SOUTH CENTRAL WISCONSIN

CITY           SKY/WX    TMP DP  RH WIND       PRES   REMARKS
REEDSBURG      CLOUDY    33  33 100 S7        29.90F WCI  26
BARABOO/DELLS  CLOUDY    33  32  96 SW5       29.90S FOG     WCI  28
LONE ROCK      NOT AVBL
MINERAL POINT  FOG       34  34 100 S9        29.92R VSB 1/2 WCI  26
MADISON        CLOUDY    33  32  96 VRB6      29.93S WCI  28
MIDDLETON      CLOUDY    34  34 100 SW7       29.93S WCI  28
WATERTOWN      CLOUDY    32  32 100 SW5       29.94S FOG     WCI  27
MONROE         CLOUDY    32  32 100 SW13      29.94R FOG     WCI  22
JANESVILLE     CLOUDY    34  34 100 SW8       29.96R FOG     WCI  27
$$

WIZ051-052-058>065-066-070>072-051400-
SOUTHEAST WISCONSIN

CITY           SKY/WX    TMP DP  RH WIND       PRES   REMARKS
MILWAUKEE      CLOUDY    34  30  85 SW8       29.97R WCI  27
WAUKESHA       CLOUDY    30  30 100 SW7       29.96S FOG     WCI  23
MILWAUKEE/TIMM CLOUDY    34  28  80 SW7       29.96S WCI  28
RACINE         CLOUDY    33  30  88 W5        29.99R WCI  29
BURLINGTON     CLOUDY    32  31  97 CALM      29.97R FOG
KENOSHA        CLOUDY    33  30  88 W9        29.98R WCI  25
FOND DU LAC    CLOUDY    34  29  82 SW8       29.92S WCI  27
SHEBOYGAN      CLOUDY    34  29  82 W13       29.93R WCI  25
WEST BEND      CLOUDY    32  32 100 W9        29.93S WCI  24
JUNEAU         CLOUDY    32  30  93 SW10      29.94S WCI  24
$$

LSZ147-162-051400-
LAKE SUPERIOR

STATION/POSITION TIME  TEMP    WIND        PRES    WAVE
                       AIR SEA DIR/SP/G            HT/PER
                 (UTC) (F)     (DEG/KT/KT) (MB)    (FT/S)
DEVILS ISLAND    1200   35     280/ 19/ 23 1007.8R
PORT WING        1240   34     210/  7/  9 1008.8R
SAXON HARBOR     1240   36     220/  4/ 10 1008.8R
$$

LMZ867-665-643>646-051400-
LAKE MICHIGAN

STATION/POSITION TIME  TEMP    WIND        PRES    WAVE
                       AIR SEA DIR/SP/G            HT/PER
                 (UTC) (F)     (DEG/KT/KT) (MB)    (FT/S)
CHAMBERS ISLAND  1240   37     210/  9/ 14 1009.8R
NORTHPORT PIER   1240   37     240/  7/ 13 1010.2R
SISTER BAY       1208   39     270/ 19/ 22   N/A
ALGOMA LAKESHORE 1221          240/  7/ 10   N/A
KEWAUNEE LAKESHO 1230   35     240/  8/ 13 1011.3R
SHEBOYGAN LAKESH 1200   35     240/ 13/ 15 1013.6R
PORT WASHINGTON  1230   35     250/  5/ 10 1014.9F
MILWAUKEE LAKESH 1230   34     260/  7/ 10   N/A
KENOSHA   LAKESH 1200   33     250/  8/ 10 1015.2
$$

TC  - TEMPERATURE IN CELSIUS
VSB - VISIBILITY IN STATUTE MILES
WCI - WIND CHILL INDEX
HX  - HEAT INDEX





USA.gov is the U.S. government's official web portal to all federal, state and local government web resources and services.